Simultaneous Nadir Overpasses (SNOs) Predictions

Prediction of SNOs between AURA and NPP Satellite Orbit:

Table of predicted SNOs for the next 14.0 days since TLE Epoch: 6/5/2020
Index Date (AURA) Time (AURA) Lat,Lon (AURA) SZA (AURA ) Date (NPP) Time (NPP) Lat,Lon (NPP) SZA (NPP ) Distance(km) Time Diff (sec)
1 06/07/2020 03:41:32 -79.48,-158.74 110.03 06/07/2020 03:41:09 -79.47,-158.72 110.01 0.42 23
2 06/07/2020 04:30:53 79.66, 10.19 69.70 06/07/2020 04:31:48 79.65, 10.08 69.68 2.38 55
3 06/09/2020 19:09:51 76.08, 134.00 74.13 06/09/2020 19:08:38 76.27, 132.77 74.34 38.56 73
4 06/09/2020 19:58:01 -79.49, -42.73 110.25 06/09/2020 19:58:03 -79.49, -42.81 110.24 1.47 2
5 06/12/2020 11:25:06 79.38, -95.25 69.77 06/12/2020 11:24:15 79.39, -95.17 69.79 1.70 51
6 06/12/2020 12:14:26 -79.66, 74.33 110.66 06/12/2020 12:14:52 -79.67, 74.48 110.70 3.09 26
7 06/15/2020 03:41:33 79.44, 20.99 69.58 06/15/2020 03:41:07 79.44, 20.99 69.60 0.11 26
8 06/15/2020 04:30:54 -79.68,-169.67 110.78 06/15/2020 04:31:45 -79.68,-169.62 110.83 1.20 51
9 06/17/2020 19:58:01 79.49, 137.23 69.45 06/17/2020 19:58:00 79.48, 137.14 69.47 1.99 1




NCC Satellite Simultaneous Nadir Overpasses (SNOs) Prediction Service
